Temperature
5 7 7 6 6 6 6 7 7 7 5 5 5 6 6 5 3 3 3 3 2 2 2 2 3 3 4 4 4 4 5 5 5 5 6 6 6 6 6 6 7 7 7 7
7 6 5 5 5 5 6 6 6 6 4 4 4 5 6 5 4 3 3 3 2 2 1 2 2 3 3 3 3 4 4 4 4 5 5 5 5 5 6 6 6 6 6 6
6 5 4 4 4 5 5 5 5 5 4 4 4 6 6 4 3 2 2 1 1 1 0 1 1 2 2 2 3 3 3 3 4 4 4 5 5 5 5 5 5 6 6 6
5 4 4 4 4 4 5 4 4 4 4 5 4 6 7 5 3 2 1 1 0 -0 -0 -0 0 1 2 2 2 2 3 3 3 3 4 4 4 4 4 5 5 5 5 5
4 3 3 4 4 3 4 3 3 3 4 4 4 4 7 4 3 3 2 1 -0 -1 -1 -1 -0 0 1 1 1 2 2 2 3 3 3 3 3 3 4 4 4 4 4 4
3 2 2 3 2 2 2 2 2 2 3 4 4 4 6 5 4 3 2 0 -0 -1 -1 -1 -0 -0 0 1 1 1 1 2 2 2 2 2 2 3 3 3 3 3 3 4
3 3 2 2 2 2 2 3 4 4 4 5 2 3 5 4 3 2 1 -0 -1 -1 -1 -1 -1 -1 -0 0 0 0 1 1 1 1 1 2 2 2 2 2 2 3 3 3
4 4 2 1 2 2 2 3 4 4 5 5 2 3 4 2 1 -0 -1 -1 -2 -2 -2 -2 -1 -1 -1 -0 -0 -0 0 0 1 1 1 1 1 1 1 1 2 2 2 2
4 4 1 1 1 2 2 2 2 2 1 2 4 3 3 2 1 -0 -1 -2 -2 -2 -2 -2 -2 -2 -2 -1 -1 -1 -0 -0 -0 0 0 0 0 1 1 1 1 1 1 2
2 2 1 0 0 0 1 1 1 2 2 3 4 4 4 3 2 1 -1 -2 -2 -2 -2 -3 -2 -2 -2 -2 -2 -1 -1 -1 -1 -0 -0 -0 -0 0 0 0 0 0 1 1
0 1 1 0 -0 1 -0 -0 0 1 1 3 3 5 3 2 1 1 -0 -2 -2 -3 -3 -3 -3 -3 -3 -3 -2 -2 -2 -2 -1 -1 -1 -1 -1 -1 -0 -0 -0 0 0 0
-0 1 1 1 -1 -1 -0 0 0 1 1 0 2 3 2 0 -0 -1 -2 -2 -2 -3 -3 -3 -3 -3 -3 -3 -3 -3 -3 -2 -2 -2 -2 -2 -1 -1 -1 -1 -1 -1 -0 -0
-1 -0 1 2 -1 -2 -2 -2 -2 -1 -0 0 1 3 0 -1 -2 -3 -3 -3 -3 -3 -4 -4 -4 -4 -4 -4 -4 -4 -4 -3 -3 -3 -3 -2 -2 -2 -2 -2 -2 -2 -1 -1
-1 -1 1 3 3 -0 -2 -3 -3 -2 -0 0 0 2 1 0 -1 -2 -3 -3 -4 -4 -4 -5 -5 -5 -5 -5 -4 -4 -4 -4 -4 -4 -3 -3 -3 -3 -3 -3 -2 -2 -2 -2
-2 -1 -2 -1 -1 -2 -2 -2 -3 -3 -1 -0 1 0 1 0 -1 -2 -3 -4 -5 -5 -5 -5 -5 -5 -5 -5 -5 -5 -5 -5 -5 -4 -4 -4 -4 -3 -3 -3 -3 -3 -3 -3
-3 -2 -3 -3 -2 -3 -3 -2 -2 -3 -2 -2 -1 -1 -0 -2 -3 -4 -4 -5 -5 -5 -6 -6 -6 -6 -6 -6 -6 -5 -5 -5 -5 -5 -5 -4 -4 -4 -4 -4 -4 -4 -4 -4
-3 -4 -2 -1 -3 -3 -2 -2 -2 -2 -2 -2 -1 -0 -1 -3 -3 -4 -5 -5 -6 -6 -6 -6 -6 -6 -6 -6 -6 -6 -6 -6 -6 -6 -5 -5 -5 -5 -5 -5 -5 -4 -4 -4
-5 -4 -3 -2 -3 -2 1 -3 -3 -3 -3 -3 -3 -3 -3 -4 -5 -5 -5 -6 -6 -6 -6 -7 -7 -7 -7 -7 -7 -6 -6 -6 -6 -6 -6 -6 -6 -5 -5 -5 -5 -5 -5 -5
-5 -4 -3 -3 -2 -1 -1 -4 -4 -4 -4 -4 -4 -5 -5 -6 -6 -5 -5 -6 -6 -7 -7 -7 -7 -7 -7 -7 -7 -7 -7 -7 -7 -7 -7 -6 -6 -6 -6 -6 -6 -6 -6 -6
-6 -5 -3 -3 -2 -1 -0 -4 -6 -4 -3 -4 -5 -5 -6 -7 -4 -3 -6 -6 -7 -7 -7 -8 -8 -8 -8 -8 -8 -8 -7 -7 -7 -7 -7 -7 -7 -7 -7 -6 -6 -6 -6 -6
-6 -5 -4 -4 -3 -2 -3 -7 -6 -3 -2 -5 -6 -7 -7 -7 -6 -7 -7 -7 -8 -8 -8 -8 -8 -8 -8 -8 -8 -8 -8 -8 -8 -8 -8 -8 -8 -7 -7 -7 -7 -7 -7 -7
-4 -4 -5 -4 -4 -2 -6 -7 -5 -4 -6 -7 -7 -8 -8 -8 -8 -8 -8 -8 -8 -8 -8 -9 -9 -8 -8 -8 -9 -8 -8 -8 -8 -8 -8 -8 -8 -8 -8 -8 -7 -7 -7 -7
-5 -4 -4 -4 -3 -5 -8 -7 -7 -7 -8 -8 -8 -8 -8 -9 -9 -9 -9 -9 -9 -9 -9 -9 -9 -9 -9 -9 -9 -9 -9 -9 -9 -9 -9 -9 -8 -8 -8 -8 -8 -8 -8 -8
-7 -9 -7 -7 -6 -7 -8 -8 -8 -8 -8 -8 -8 -9 -9 -9 -10 -10 -9 -9 -9 -9 -9 -9 -9 -9 -9 -9 -9 -9 -9 -9 -9 -9 -9 -9 -9 -9 -9 -9 -9 -9 -9 -9
-7 -9 -8 -8 -8 -9 -8 -8 -8 -8 -9 -9 -9 -9 -9 -10 -10 -10 -10 -10 -10 -10 -10 -10 -10 -10 -10 -10 -10 -10 -10 -10 -10 -10 -10 -10 -10 -10 -9 -9 -9 -9 -9 -9
-9 -9 -8 -6 -8 -8 -8 -8 -8 -9 -9 -9 -9 -9 -10 -10 -10 -10 -10 -10 -10 -10 -10 -10 -10 -10 -10 -10 -10 -10 -10 -10 -10 -10 -10 -10 -10 -10 -10 -10 -10 -10 -10 -9
Wind_Speed
3 3 1 1 2 3 3 5 7 5 3 4 9 12 11 7 7 8 7 6 6 5 5 4 5 5 4 3 3 2 2 1 0 0 1 1 1 1 1 1 1 2 3 4
2 1 2 2 1 2 4 6 7 5 2 5 8 13 11 9 9 8 8 7 6 5 4 4 5 5 4 3 3 3 2 2 2 1 2 2 2 2 1 1 1 2 3 4
1 2 2 1 1 2 4 5 6 6 6 4 8 9 7 5 6 6 6 4 3 3 4 4 5 5 4 4 4 3 3 3 2 1 1 1 1 1 1 1 1 1 2 3
0 2 1 1 2 3 5 4 5 5 5 4 3 7 5 4 5 4 4 4 4 3 4 4 4 5 5 5 4 4 3 3 2 1 1 2 2 3 3 2 2 1 1 2
0 1 2 3 3 3 3 3 3 4 5 5 4 6 7 2 5 6 5 4 4 4 3 4 4 4 4 5 4 3 3 3 2 1 1 2 3 2 2 2 2 2 2 1
1 1 2 2 2 1 2 2 1 2 3 6 5 6 7 3 5 6 5 4 3 3 3 4 4 4 4 4 4 3 3 3 2 2 1 2 2 2 2 2 2 2 1 1
1 1 0 1 1 1 1 1 3 3 4 5 2 6 8 4 4 5 5 4 3 2 2 3 4 4 4 4 4 3 3 2 2 2 2 2 2 3 3 3 3 3 2 2
3 3 1 1 2 2 2 3 3 5 6 6 3 7 5 3 4 3 3 3 3 2 3 3 4 4 4 4 4 4 3 3 2 2 2 2 2 2 2 3 3 3 3 3
3 3 0 1 2 2 2 4 2 3 4 7 7 7 7 4 4 3 3 3 3 3 3 4 4 4 4 4 4 4 4 3 3 2 2 2 2 2 3 3 3 3 3 3
2 4 3 1 2 1 2 2 2 3 5 7 8 8 6 5 5 4 4 4 5 4 4 4 4 4 3 4 4 4 4 3 3 3 2 2 2 3 3 3 3 3 4 3
2 3 2 2 5 4 3 3 4 4 4 6 8 7 2 5 5 5 6 5 5 4 4 4 4 4 3 4 4 4 4 4 3 3 3 2 2 2 2 3 3 3 3 4
3 3 5 5 1 2 4 5 6 5 6 6 7 8 0 4 5 5 6 6 5 5 4 4 3 3 3 4 4 4 4 4 4 3 3 3 2 2 2 3 3 3 4 4
5 4 4 3 3 3 4 5 6 5 5 7 9 9 1 3 5 5 6 6 5 5 5 4 3 3 4 4 4 4 4 5 4 4 3 3 2 3 3 3 3 3 3 3
4 5 8 11 6 4 5 6 7 8 7 10 14 17 13 10 9 8 7 7 6 5 5 5 4 4 4 4 4 4 4 4 4 4 3 3 3 3 4 3 3 3 3 3
4 6 8 11 10 7 9 10 11 13 14 14 16 17 19 13 11 9 7 6 6 6 6 6 5 5 5 5 4 4 4 4 4 4 3 3 3 3 3 3 3 3 3 3
4 5 5 8 8 9 12 15 16 17 16 18 20 21 16 11 8 8 7 7 7 8 7 6 6 6 5 5 5 5 5 4 4 4 4 4 3 3 3 3 3 3 3 3
5 5 5 8 6 7 12 14 17 12 13 13 17 16 10 9 9 9 9 8 8 8 8 7 6 6 6 6 5 5 5 4 4 4 4 4 4 4 4 4 4 4 4 4
6 6 5 5 4 12 7 1 8 11 12 12 12 12 11 11 11 9 8 8 9 8 8 7 6 6 6 5 5 4 4 4 4 4 4 5 5 4 4 4 4 4 4 4
7 7 5 5 8 12 7 3 4 7 9 8 11 12 11 9 8 8 6 6 8 8 7 6 6 5 4 4 4 4 4 4 4 4 5 5 5 5 5 5 5 5 4 4
2 5 6 6 7 9 5 1 1 3 7 4 7 9 7 5 6 6 4 5 6 5 4 4 4 3 4 4 3 4 4 4 5 5 6 6 5 6 6 6 6 5 4 5
4 5 9 10 10 10 2 2 5 5 4 1 4 6 5 6 7 6 6 5 5 4 4 4 3 3 4 4 3 4 5 5 6 6 6 6 6 6 6 6 5 5 4 4
8 7 8 7 9 9 4 6 7 4 1 1 3 4 6 7 7 7 6 5 4 4 4 4 3 4 4 3 4 5 6 6 5 5 6 6 6 5 5 5 5 4 4 5
9 8 6 9 8 2 5 5 3 1 3 4 4 5 6 6 7 7 6 6 5 5 4 4 4 5 4 4 4 6 6 5 5 5 5 5 5 5 5 5 5 4 4 4
6 3 5 6 8 6 5 5 5 5 5 6 5 5 5 6 7 7 6 6 6 5 5 4 4 5 5 5 5 6 5 5 5 5 5 5 4 5 4 4 4 4 4 4
5 6 5 8 8 6 6 7 7 6 6 6 6 5 6 6 7 6 6 6 5 5 4 4 4 5 5 5 5 5 5 4 5 5 5 4 4 4 4 4 4 4 4 5
6 7 7 9 6 5 5 4 4 6 7 7 6 6 6 6 7 6 6 6 5 5 4 4 4 5 5 5 6 5 5 4 5 4 4 3 3 3 3 3 3 4 5 6
Wind_Direction
44 63 43 301 272 285 282 263 274 283 305 284 260 267 270 266 265 266 268 267 269 281 301 324 329 329 324 320 306 298 284 284 279 148 194 189 179 170 139 128 144 149 156 159
111 19 329 344 335 267 269 273 279 286 299 284 284 276 271 260 255 258 260 260 266 285 310 331 342 343 336 321 310 293 288 277 258 233 216 210 190 190 185 179 141 135 156 161
145 16 349 1 344 283 272 272 285 291 305 263 295 276 254 253 251 261 263 268 278 277 295 318 331 336 337 333 324 307 289 281 281 258 176 136 143 147 160 167 156 152 154 166
70 342 337 312 305 285 277 292 281 280 282 281 306 289 273 263 260 268 271 270 278 288 299 314 327 331 331 326 321 318 314 293 289 263 196 186 201 214 221 212 202 178 161 173
345 340 312 282 299 281 293 322 280 266 259 272 250 264 280 276 273 275 268 271 281 289 301 317 324 324 328 330 329 327 327 323 315 281 216 209 213 227 229 199 199 179 156 177
311 314 299 301 327 304 312 302 271 227 236 255 241 243 279 258 271 284 271 271 277 291 308 324 334 338 340 344 343 337 339 338 341 335 266 221 216 208 198 198 210 202 181 191
292 215 355 303 309 111 336 289 284 258 244 258 233 244 263 286 287 273 272 271 288 294 305 317 326 335 340 346 345 339 338 338 341 341 317 252 229 217 210 212 216 213 203 214
262 263 201 220 244 250 229 234 249 273 277 284 251 249 266 302 304 300 287 278 297 310 310 313 315 319 324 331 337 337 328 325 328 324 312 284 247 231 227 228 223 222 218 220
238 254 20 277 288 246 217 224 266 264 274 273 262 269 279 274 293 285 286 289 290 294 296 302 305 306 316 323 327 325 320 316 316 313 306 279 255 242 237 233 229 224 225 222
236 263 271 290 226 243 269 200 189 220 265 270 270 267 270 273 275 274 277 274 280 288 294 298 295 299 312 319 322 323 317 308 304 306 301 291 270 254 247 238 235 233 227 216
210 232 252 224 215 221 188 196 221 229 255 265 276 275 245 260 266 267 269 273 278 284 291 294 299 304 313 323 326 328 327 318 310 304 296 294 287 276 261 251 247 243 236 220
198 225 256 247 230 273 226 225 207 232 243 243 268 276 21 270 290 285 285 288 285 288 297 298 301 314 323 327 328 325 324 319 308 297 290 286 283 275 265 264 264 255 245 230
172 195 261 257 211 202 225 225 221 234 251 245 254 270 14 311 296 286 287 292 292 293 299 302 302 306 313 320 324 326 322 319 316 305 292 286 284 278 271 268 267 261 253 247
189 212 235 256 276 212 224 224 213 213 239 252 251 267 280 288 291 290 289 288 288 291 293 295 294 298 305 311 315 320 320 321 321 315 301 292 288 284 279 274 269 267 263 254
199 236 242 258 266 253 247 241 223 221 236 250 263 266 276 283 285 287 287 285 285 288 289 286 286 292 299 308 313 315 313 316 316 314 304 295 294 288 281 278 275 273 269 265
201 235 246 260 258 257 262 253 241 241 246 250 263 269 277 286 283 281 283 280 275 276 279 281 284 287 289 294 302 305 306 308 307 306 300 295 291 284 280 280 277 272 269 267
196 205 236 262 272 273 260 244 232 234 233 236 250 264 284 286 282 279 279 274 270 271 273 274 276 276 281 285 289 291 296 303 305 304 304 295 288 279 276 278 274 270 269 267
198 211 234 263 258 251 261 220 224 231 246 236 248 269 281 285 290 283 274 271 274 276 273 273 273 274 280 285 289 292 297 300 302 305 308 305 296 287 279 273 271 272 271 264
211 205 221 234 254 268 269 220 202 220 259 239 246 267 282 300 292 273 268 270 271 271 271 271 273 274 278 279 287 291 293 295 297 300 303 305 301 289 280 272 269 269 268 265
197 212 221 224 246 259 267 167 162 195 258 237 233 255 273 287 283 296 324 298 287 284 282 280 285 281 276 280 282 279 282 285 286 290 294 295 294 291 277 271 270 269 265 263
192 210 222 232 245 261 261 143 152 210 270 313 230 248 247 244 265 303 313 303 292 290 290 290 284 275 273 277 272 270 272 273 281 288 290 291 290 289 283 274 269 266 262 259
197 200 213 215 232 249 151 157 199 245 335 264 263 255 252 259 278 292 296 292 289 293 295 294 289 287 288 280 269 270 271 280 288 288 287 288 290 289 285 274 269 264 256 251
216 213 215 212 231 289 166 200 229 267 266 274 276 272 261 261 274 285 288 289 286 286 289 293 286 290 294 288 273 271 282 291 288 284 283 287 290 287 282 276 267 258 249 245
226 221 228 247 257 258 239 250 261 263 267 279 281 278 264 262 272 281 284 286 287 286 286 286 286 287 292 294 286 279 290 288 279 278 281 284 285 286 284 276 267 255 246 242
232 195 222 250 268 280 253 246 255 263 269 275 279 276 269 265 273 276 279 281 283 287 289 284 277 281 288 295 293 291 293 286 278 277 278 283 281 281 283 279 270 263 257 250
223 214 225 249 247 246 269 284 268 261 264 270 277 283 280 267 271 279 279 279 281 284 286 288 288 289 294 298 296 297 292 280 274 276 280 280 281 281 280 281 285 278 271 273
Height
1521 1521 1520 1522 1523 1522 1521 1519 1517 1518 1523 1522 1516 1513 1512 1514 1514 1512 1511 1510 1509 1508 1507 1506 1504 1503 1503 1502 1501 1501 1501 1501 1502 1502 1503 1504 1505 1506 1508 1509 1511 1512 1513 1515
1521 1523 1526 1526 1526 1524 1522 1519 1517 1518 1523 1521 1516 1510 1508 1509 1509 1509 1508 1507 1507 1506 1504 1502 1501 1501 1500 1499 1498 1498 1498 1498 1499 1499 1500 1501 1502 1503 1504 1506 1507 1508 1510 1511
1521 1527 1528 1527 1525 1523 1521 1520 1519 1520 1521 1520 1517 1501 1502 1504 1506 1506 1506 1505 1505 1504 1502 1501 1499 1498 1497 1496 1496 1496 1495 1496 1496 1496 1497 1498 1498 1499 1501 1502 1502 1504 1506 1507
1526 1529 1528 1526 1525 1524 1519 1522 1523 1522 1519 1512 1517 1500 1494 1499 1501 1502 1503 1503 1502 1501 1500 1499 1497 1496 1495 1495 1494 1493 1493 1493 1493 1493 1493 1494 1494 1495 1496 1498 1499 1500 1502 1503
1526 1529 1528 1526 1526 1526 1524 1526 1525 1523 1519 1516 1515 1512 1491 1499 1498 1499 1500 1500 1500 1500 1499 1497 1496 1495 1494 1493 1492 1491 1491 1491 1490 1490 1491 1491 1492 1493 1493 1494 1495 1496 1498 1500
1529 1531 1530 1528 1529 1529 1528 1526 1525 1523 1519 1514 1511 1509 1489 1493 1496 1496 1498 1498 1498 1498 1497 1496 1494 1493 1492 1490 1490 1489 1488 1488 1488 1488 1488 1489 1489 1490 1490 1490 1491 1492 1493 1495
1527 1529 1530 1530 1528 1528 1527 1523 1514 1509 1507 1500 1514 1510 1494 1493 1496 1496 1497 1497 1496 1496 1495 1493 1492 1491 1490 1488 1487 1487 1486 1486 1485 1485 1486 1486 1486 1486 1487 1487 1488 1488 1489 1491
1521 1520 1528 1529 1528 1527 1527 1524 1518 1510 1500 1495 1512 1504 1492 1497 1498 1497 1497 1496 1495 1494 1493 1492 1490 1489 1488 1487 1486 1485 1484 1483 1483 1483 1483 1483 1483 1483 1484 1484 1484 1484 1486 1487
1520 1520 1529 1529 1529 1528 1526 1524 1526 1522 1522 1515 1497 1496 1494 1495 1495 1496 1495 1495 1493 1492 1491 1490 1489 1487 1486 1485 1484 1483 1482 1481 1480 1480 1480 1480 1480 1480 1481 1481 1481 1482 1483 1483
1525 1525 1527 1529 1530 1529 1528 1526 1527 1521 1514 1500 1491 1492 1487 1489 1490 1492 1492 1492 1491 1490 1489 1488 1487 1486 1484 1483 1482 1481 1480 1479 1478 1477 1477 1477 1477 1477 1477 1478 1478 1478 1478 1479
1528 1527 1526 1528 1527 1523 1528 1529 1525 1519 1517 1505 1493 1485 1487 1489 1489 1490 1490 1490 1490 1488 1487 1486 1485 1484 1482 1481 1480 1478 1477 1476 1475 1474 1474 1474 1474 1474 1474 1474 1474 1474 1474 1475
1526 1524 1520 1521 1526 1527 1525 1522 1522 1517 1514 1514 1500 1489 1489 1490 1490 1490 1489 1489 1488 1487 1486 1484 1483 1481 1480 1478 1477 1476 1475 1473 1473 1472 1471 1470 1470 1470 1470 1470 1470 1470 1471 1471
1525 1524 1516 1512 1523 1528 1526 1523 1523 1521 1515 1509 1501 1489 1490 1490 1490 1489 1489 1487 1486 1485 1483 1482 1480 1479 1477 1476 1475 1474 1472 1471 1470 1469 1468 1467 1467 1466 1466 1466 1467 1466 1466 1466
1521 1520 1514 1503 1500 1511 1518 1520 1521 1519 1510 1501 1496 1486 1485 1486 1487 1487 1486 1485 1484 1482 1481 1479 1477 1476 1475 1473 1472 1471 1470 1469 1467 1466 1465 1464 1463 1463 1463 1462 1462 1462 1462 1462
1519 1515 1515 1511 1510 1512 1511 1511 1514 1513 1503 1498 1487 1486 1481 1482 1484 1483 1482 1481 1480 1479 1477 1476 1475 1473 1472 1471 1469 1468 1467 1466 1465 1464 1462 1461 1460 1460 1459 1459 1458 1458 1457 1458
1517 1515 1515 1512 1510 1510 1507 1503 1504 1503 1499 1495 1489 1483 1479 1481 1481 1479 1478 1477 1476 1474 1473 1472 1471 1470 1469 1467 1466 1465 1464 1463 1462 1461 1460 1459 1457 1457 1456 1454 1454 1453 1453 1453
1513 1514 1511 1500 1508 1507 1495 1490 1491 1491 1488 1487 1483 1476 1477 1477 1476 1475 1474 1473 1471 1470 1469 1468 1467 1466 1465 1464 1463 1462 1461 1460 1459 1458 1457 1456 1455 1453 1452 1451 1450 1450 1449 1449
1511 1511 1507 1501 1505 1494 1475 1483 1483 1483 1481 1482 1479 1476 1476 1475 1473 1472 1470 1469 1468 1466 1465 1464 1463 1462 1462 1461 1460 1459 1458 1456 1455 1455 1453 1452 1451 1450 1449 1448 1446 1446 1445 1445
1506 1506 1503 1500 1491 1478 1476 1481 1483 1482 1477 1476 1476 1474 1474 1473 1470 1467 1466 1465 1464 1463 1462 1461 1460 1459 1458 1457 1456 1455 1454 1453 1452 1451 1450 1448 1447 1446 1445 1444 1443 1442 1442 1441
1506 1504 1501 1497 1489 1477 1467 1478 1479 1480 1473 1470 1471 1471 1471 1471 1467 1462 1462 1461 1460 1459 1458 1457 1456 1455 1455 1454 1453 1452 1450 1449 1448 1447 1446 1445 1443 1442 1441 1440 1439 1438 1438 1437
1502 1500 1497 1491 1485 1471 1473 1477 1479 1475 1465 1468 1467 1468 1468 1468 1465 1463 1460 1458 1457 1455 1454 1453 1452 1452 1451 1450 1449 1448 1447 1446 1445 1443 1442 1441 1439 1438 1437 1436 1435 1434 1433 1433
1487 1488 1489 1486 1482 1470 1474 1475 1473 1466 1466 1466 1465 1465 1464 1462 1461 1459 1457 1455 1453 1452 1451 1450 1449 1448 1447 1446 1445 1444 1443 1442 1441 1439 1438 1437 1435 1434 1433 1432 1431 1430 1429 1429
1480 1478 1473 1473 1468 1467 1468 1467 1466 1465 1465 1463 1463 1462 1460 1458 1457 1455 1454 1452 1451 1449 1448 1447 1446 1444 1443 1443 1441 1440 1439 1438 1437 1435 1434 1432 1431 1430 1429 1428 1427 1426 1425 1425
1475 1477 1475 1472 1466 1466 1465 1464 1463 1463 1462 1461 1460 1458 1457 1455 1453 1452 1451 1449 1448 1446 1445 1444 1442 1441 1439 1439 1437 1436 1435 1434 1433 1431 1430 1428 1427 1426 1425 1424 1423 1422 1421 1421
1468 1472 1470 1467 1463 1463 1461 1460 1460 1459 1458 1457 1456 1455 1453 1452 1450 1449 1447 1446 1444 1443 1442 1440 1439 1437 1436 1435 1434 1433 1431 1430 1428 1427 1426 1424 1423 1422 1421 1420 1419 1418 1417 1417
1465 1465 1464 1457 1458 1459 1457 1456 1456 1455 1454 1453 1452 1450 1450 1449 1447 1445 1444 1442 1441 1440 1438 1437 1436 1434 1433 1432 1431 1429 1428 1426 1425 1423 1422 1421 1419 1418 1417 1416 1415 1414 1413 1413